DMSP 5D-3 F19 DEB

Satellite information

Favourite Embed

Satellite Type and Status

DEBRISIN ORBIT

Key statistics

Satellite DMSP 5D-3 F19 DEB at a glance.

Uptime

4273

Days in orbit

Revolutions

≈ 14.3

Per day

Orbit

SSO

Sun Synchronous Orbit

Inclination

98.6

Latest

Satellite identification and parameters

Extended collection of information and parameters for DMSP 5D-3 F19 DEB.

Object identification

Identified? True

Debris? True

Object name: DMSP 5D-3 F19 DEB

International designator: 2014-015E

Object number (NORAD): 43415

Object ID (CCSDS): 43415

Country: UNITED STATES OF AMERICA (US)

Current information (Y/N): Y

RCS size: MEDIUM

Orbital parameters

Period: 100.494 minutes

Inclination: 98.6256 deg

SMA: 7160.1 km

Apoapsis: 787.664 km

Periapsis: 776.267 km

RAAN: 4.6047 deg

Eccentricy: 0.0007959

Argument of periapsis: 245.4247 deg

Mean anomaly: 114.6108 deg

Mean motion: 14.32927094 rev/day

Mean motion (dot): 0.00004736 rev/day2

B* drag term: 0.0017477 1/REarth

Two-line elements (TLE)

Creation date: Dec. 12, 2025, 7:16 a.m.

Reference frame: TEME

Reference center: EARTH

Epoch: Dec. 12, 2025, 12:49 a.m. UTC

TLE line 0: 0 DMSP 5D-3 F19 DEB

TLE line 1: 1 43415U 14015E 25346.03413191 .00004736 00000-0 17477-2 0 9998

TLE line 2: 2 43415 98.6256 4.6047 0007959 245.4247 114.6108 14.32927094601328

Live tracking on map

Real-time ground track for satellite DMSP 5D-3 F19 DEB.

In-orbit conjunctions

A list of the most updated potential collisions computed for object DMSP 5D-3 F19 DEB.

Target Orbit TCA Probability of collision Miss distance Type
OSCAR 18 (WEBERSAT) SSO 2025-09-07 10:12:12 0.000133919 690.0 (m) PAYLOAD
COSMOS 1570 LEO 2025-03-20 17:11:29 0.0002190507 443.0 (m) PAYLOAD
THORAD AGENA D DEB SSO 2025-03-05 19:42:31 0.0002337186 63.0 (m) DEBRIS
COSMOS 1867 COOLANT LEO 2024-09-26 21:33:52 0.000302737 783.0 (m) DEBRIS

Associated space launch

DMSP-5D3 (Defense Meteorological Satellite Program Block 5D3) is the eleventh and most recent version of the military meteorological satellites of the Defense Meteorological Satellite Program.

DMSP 5D-3 F19 DEB was lifted into orbit during the mission ‘Atlas V 401 | DMSP-5D3 F19’, on board a Atlas V 401 space rocket.

The launch took place on April 3, 2014, 2:46 p.m. from Space Launch Complex 3E.

For more information about the launch, click the button.

Launch to space Atlas V 401 | DMSP-5D3 F19
Atlas V 401 | DMSP-5D3 F19

Agency: N/A

Status: Launch Successful

Launch date: April 3, 2014, 2:46 p.m. UTC

Rocket: Atlas V 401

Launch pad: Space Launch Complex 3E

Location: Vandenberg SFB, CA, USA

...

Latest news about this satellite

There are no fresh news available about this satellite. Check back as we update our databases every day.


Newsletter sign-up

Weekly statistics, charts and insights to help you stay on top of the space industry.